User: anonymous   Login
Location: Wiler
(46.4041°N, 7.7840°E)
Time: 13:17:06
(UTC+00:00)
Language:

STARLINK-1200 - Orbit

View from above orbital plane
View from above orbital plane
View from above satellite
View from above satellite

Ground track
Ground track

The orbit data is extracted from the following two-line orbital elements,

1 45181U 20012D   20192.25001157  .00036478  00000-0  25106-2 0  9993
2 45181  52.9992 332.2024 0001142 116.1350  72.1989 15.05568556 22431
Epoch (UTC): 10 July 2020 06:00:01
Eccentricity: 0.0001142
inclination: 52.9992°
perigee height: 549 km
apogee height: 550 km
right ascension of ascending node: 332.2024°
argument of perigee: 116.1350°
revolutions per day: 15.05568556
mean anomaly at epoch: 72.1989°
orbit number at epoch: 2243

The dashed part of the orbit path shows where the satellite is in the earth's shadow,  

DLR